DW7040 Weather Reports


Display with metric or nautical units.
time (UTC)temp
F
wind
direction
speed
MPH
gust
MPH
rain 1hr
in
rain 24hr
in
rain mn
in
humidity
%
barometer
mb
20260905093022 0 242 0.0 0.0 0.00 0.00 0.00 1013.5
20260905091504 0 240 0.0 0.0 0.00 0.00 0.00 1013.3
20260905090025 0 242 0.0 0.0 0.00 0.00 0.00 1013.2
20260905084519 0 242 0.0 0.0 0.00 0.00 0.00 1012.9
20260905083009 0 242 0.0 0.0 0.00 0.00 0.00 1012.8
20260905081600 0 242 0.0 0.0 0.00 0.00 0.00 1012.7
20260905080041 0 241 0.0 0.0 0.00 0.00 0.00 1012.5
20260905074604 0 241 0.0 0.0 0.00 0.00 0.00 1012.2
20260905073051 0 242 0.0 0.0 0.00 0.00 0.00 1012.1
20260905071544 0 241 0.0 0.0 0.00 0.00 0.00 1012.1
20260905070033 0 241 0.0 0.0 0.00 0.00 0.00 1011.9
20260905064523 0 242 0.0 0.0 0.00 0.00 0.00 1011.7
20260905063018 0 242 0.0 0.0 0.00 0.00 0.00 1011.4
20260905061504 0 0.0 0.0 0.00 0.00 0.00 1011.3
20260905054543 0 0.0 0.0 0.00 0.00 0.00 1011.0
20260905053036 0 0.0 0.0 0.00 0.00 0.00 1011.0
20260905051521 0 0.0 0.0 0.00 0.00 0.00 1010.8
20260905050033 0 0.0 0.0 0.00 0.00 0.00 1010.8
20260905044508 0 0.0 0.0 0.00 0.00 0.00 1010.6
20260905043040 0 0.0 0.0 0.00 0.00 0.00 1010.5
20260905041540 0 0.0 0.0 0.00 0.00 0.00 1010.4
20260905034528 0 0.0 0.0 0.00 0.00 0.00 1010.2
20260905033050 0 0.0 0.0 0.00 0.00 0.00 1010.0
20260905031600 0 0.0 0.0 0.00 0.00 0.00 1010.0
20260905030005 0 0.0 0.0 0.00 0.00 0.00 1009.7
20260905024525 0 0.0 0.0 0.00 0.00 0.00 1009.7
20260905023016 0 0.0 0.0 0.00 0.00 0.00 1009.7
20260905021510 0 0.0 0.0 0.00 0.00 0.00 1009.6
20260905020050 0 0.0 0.0 0.00 0.00 0.00 1009.3
20260905014557 0 0.0 0.0 0.00 0.00 0.00 1009.2
20260905013043 0 0.0 0.0 0.00 0.00 0.00 1009.1
20260905011550 0 0.0 0.0 0.00 0.00 0.00 1009.1
20260905004542 0 242 0.0 0.0 0.00 0.00 0.00 1008.8
20260905001530 0 242 0.0 0.0 0.00 0.00 0.00 1008.7
20260905000105 0 243 0.0 0.0 0.00 0.00 0.00 1008.7
20260904234544 0 242 0.0 0.0 0.00 0.00 0.00 1008.4
20260904233026 0 243 0.0 0.0 0.00 0.00 0.00 1008.1
20260904231554 0 242 0.0 0.0 0.00 0.00 0.00 1008.0
20260904230105 0 242 0.0 0.0 0.00 0.00 0.00 1007.8
20260904224533 0 242 0.0 0.0 0.00 0.00 0.00 1007.8
20260904223100 0 242 0.0 0.0 0.00 0.00 0.00 1007.9
20260904221548 0 243 0.0 0.0 0.00 0.00 0.00 1007.8
20260904220026 0 242 0.0 0.0 0.00 0.00 0.00 1007.8
20260904214551 0 240 0.0 0.0 0.00 0.00 0.00 1007.6
20260904213020 0 242 0.0 0.0 0.00 0.00 0.00 1007.5
20260904211507 0 242 0.0 0.0 0.00 0.00 0.00 1007.3
20260904210058 0 242 0.0 0.0 0.00 0.00 0.00 1007.2
20260904204554 0 240 0.0 0.0 0.00 0.00 0.00 1007.1
20260904203048 0 259 0.0 0.0 0.00 0.00 0.00 1007.0
20260904201510 0 255 0.0 0.0 0.00 0.00 0.00 1006.9
20260904200024 0 262 0.0 0.0 0.00 0.00 0.00 1006.8
20260904194504 0 264 0.0 0.0 0.00 0.00 0.00 1006.7
20260904193024 0 265 0.0 0.0 0.00 0.00 0.00 1006.5
20260904191503 0 267 0.0 0.0 0.00 0.00 0.00 1006.2
20260904190057 0 267 0.0 0.0 0.00 0.00 0.00 1006.0
20260904184551 0 268 0.0 0.0 0.00 0.00 0.00 1005.8
20260904183042 0 268 0.0 0.0 0.00 0.00 0.00 1005.8
20260904181548 0 268 0.0 0.0 0.00 0.00 0.00 1005.7
20260904180045 0 270 0.0 0.0 0.00 0.00 0.00 1005.5
20260904174612 0 265 0.0 0.0 0.00 0.00 0.00 1005.6
20260904173046 0 266 0.0 0.0 0.00 0.00 0.00 1005.4
20260904171535 0 266 0.0 0.0 0.00 0.00 0.00 1005.3
20260904170042 0 266 0.0 0.0 0.00 0.00 0.00 1005.1
20260904164522 0 266 0.0 0.0 0.00 0.00 0.00 1005.0
20260904163017 0 267 0.0 0.0 0.00 0.00 0.00 1004.7
20260904161517 0 269 0.0 0.0 0.00 0.00 0.00 1004.7
20260904160008 0 269 0.0 0.0 0.00 0.00 0.00 1004.7
20260904154546 0 269 0.0 0.0 0.00 0.00 0.00 1004.6
20260904153042 0 271 0.0 0.0 0.00 0.00 0.00 1004.4
20260904151526 0 271 0.0 0.0 0.00 0.00 0.00 1004.5
20260904150029 0 271 0.0 0.0 0.00 0.00 0.00 1004.5
20260904144517 0 272 0.0 0.0 0.00 0.00 0.00 1004.2
20260904143052 0 272 0.0 0.0 0.00 0.00 0.00 1004.3
20260904141550 0 274 0.0 0.0 0.00 0.00 0.00 1004.3
20260904140043 0 276 0.0 0.0 0.00 0.00 0.00 1004.2
20260904134538 0 279 0.0 0.0 0.00 0.00 0.00 1004.1
20260904133033 0 261 0.0 0.0 0.00 0.00 0.00 1003.9
20260904131534 0 264 0.0 0.0 0.00 0.00 0.00 1003.6
20260904130019 0 266 0.0 0.0 0.00 0.00 0.00 1003.5
20260904124516 0 268 0.0 0.0 0.00 0.00 0.00 1003.3
20260904123026 0 272 0.0 0.0 0.00 0.00 0.00 1003.4
20260904121520 0 275 0.0 0.0 0.00 0.00 0.00 1003.2
20260904120027 0 278 0.0 0.0 0.00 0.00 0.00 1003.1
20260904114529 0 280 0.0 0.0 0.00 0.00 0.00 1002.8
20260904113044 0 280 0.0 0.0 0.00 0.00 0.00 1002.8
20260904111534 0 281 0.0 0.0 0.00 0.00 0.00 1002.5
20260904110028 0 281 0.0 0.0 0.00 0.00 0.00 1002.5
20260904104527 0 283 0.0 0.0 0.00 0.00 0.00 1002.0
20260904103013 0 268 0.0 0.0 0.00 0.00 0.00 1002.2
20260904101543 0 248 0.0 0.0 0.00 0.00 0.00 1001.9
20260904100047 0 240 0.0 0.0 0.00 0.00 0.00 1001.6
20260904094516 0 237 0.0 0.0 0.00 0.00 0.00 1001.6